Regional Weather Roundup
Issued by NWS

Home | Current Version | Previous Version | Text Only | Print | Product List | Glossary On
Versions: 1 2 3 4 5 6 7 8 9 10 11 12 13 14 15 16 17 18 19 20 21 22 23 24 25 26 27 28 29 30 31 32 33 34 35 36 37 38 39 40 41 42 43 44 45 46 47 48 49 50
000
ASUS45 KSLC 280110
RWRUT

UTAH REGIONAL WEATHER ROUNDUP
NATIONAL WEATHER SERVICE SALT LAKE CITY UT
700 PM MDT MON JUL 27 2015

UTZ001>011-023>025-280200-

NORTHERN UTAH

CITY           SKY/WX    TMP DP  RH WIND       PRES   REMARKS
BRIGHAM CITY   MOSUNNY   73  40  30 CALM      30.06F
HILL AFB       SUNNY     73  40  30 NW13      30.09R
LOGAN            N/A    N/A N/A N/A MISG      30.07S
OGDEN          SUNNY     73  40  30 NW7       30.07R
PROVO AIRPORT  SUNNY     75  43  31 N12G17    30.03S
SALT LAKE CITY MOSUNNY   76  38  25 N14G22    30.05S
VERNAL         SUNNY     83  25  12 W22G32    29.91R
WENDOVER       SUNNY     79  32  18 NW20G28   30.04S
HEBER CITY     SUNNY     77  32  19 W13       30.07S
WEST JORDAN    SUNNY     73  39  29 N14       30.08R

$$

UTZ012>022-026-027-280200-

SOUTHERN/CENTRAL UTAH

CITY           SKY/WX    TMP DP  RH WIND       PRES   REMARKS
BLANDING       SUNNY     87  27  11 W16       30.09S
BRYCE CANYON   SUNNY     76  20  12 W15G21    30.19R
CEDAR CITY     SUNNY     85  16   7 S8        30.02F
DELTA          SUNNY     82  29  15 N16G23    30.00R
HANKSVILLE     SUNNY     95  27   8 NW17      29.86S
MILFORD        SUNNY     89  32  13 NE20      29.95R
MOAB/CYNLANDS  SUNNY     94  22   7 S18       29.84S
PRICE          SUNNY     82  30  15 W21G32    30.00S
ST GEORGE      CLEAR     97  32  10 W13       29.84F HX  91
KANAB          SUNNY     88  23   9 W12G22    30.02

$$

REGIONAL REPORTS     COLORADO/ARIZONA

CITY           SKY/WX    TMP DP  RH WIND       PRES   REMARKS
CRAIG, CO      SUNNY     84  28  13 SW20G31   29.96S
GRAND JUNCTION SUNNY     90  25   9 W18       29.89R
RIFLE          SUNNY     90  22   8 W15       29.93R
MONTROSE       SUNNY     88  31  13 SW14G23   30.00F
CORTEZ         SUNNY     86  32  14 SW12      30.03F
PAGE, AZ       SUNNY     96  19   6 W8        29.88F
GRAND CANYON   SUNNY     82  12   7 SW17      30.14S
KINGMAN        SUNNY     93  10   4 SW20      29.91F
FLAGSTAFF      SUNNY     77  41  27 W9        30.19S

$$

REGIONAL REPORTS    NEVADA/IDAHO/WYOMING

CITY           SKY/WX    TMP DP  RH WIND       PRES   REMARKS
LAS VEGAS, NV  SUNNY    102  18   5 VRB6      29.72F HX  94
ELY            SUNNY     76  21  12 VRB3      30.12F
ELKO           SUNNY     75  19  12 W13       30.12S
POCATELLO, ID  SUNNY     67  30  25 W28G35    30.09R
BURLEY         SUNNY     67  32  27 W14G26    30.09R
EVANSTON, WY   SUNNY     63  31  30 W25G33    30.19R
ROCK SPRINGS   SUNNY     69  31  24 W29G36    30.09R
KEMMERER       MOSUNNY   59  32  36 W28G37    30.18R

$$


USA.gov is the U.S. government's official web portal to all federal, state and local government web resources and services.